This is the latest recevied weather packets stored in our database for station/object AA8FM-13. If no packets are shown the sender has not sent any weather packets the latest 10 day(s).
| Time | Temp. | Humidity | Pressure | Rain* | Wind** | Luminosity | Snow |
|---|---|---|---|---|---|---|---|
| 1777401692 | 17.22° C | 92% | 1013 hPa | 0 mm | - | 135 W/m² | - |
| 1777401390 | 17.22° C | 92% | 1012.6 hPa | 0 mm | - | 107 W/m² | - |
| 1777401085 | 17.22° C | 93% | 1012.8 hPa | 0 mm | - | 118 W/m² | - |
| 1777400781 | 17.78° C | 91% | 1012.5 hPa | 0 mm | - | 93 W/m² | - |
| 1777400478 | 17.78° C | 91% | 1012.8 hPa | 0 mm | - | 83 W/m² | - |
| 1777400174 | 17.78° C | 90% | 1012.4 hPa | 0 mm | - | 129 W/m² | - |
| 1777399871 | 17.78° C | 89% | 1012.5 hPa | 0 mm | - | 111 W/m² | - |
| 1777399563 | 17.78° C | 89% | 1012.5 hPa | 0 mm | - | 159 W/m² | - |
| 1777399259 | 17.78° C | 89% | 1012.5 hPa | 0 mm | - | 161 W/m² | - |
| 1777398957 | 17.78° C | 89% | 1012.4 hPa | 0 mm | - | 110 W/m² | - |
| 1777398654 | 17.78° C | 88% | 1012.5 hPa | 0 mm | - | 126 W/m² | - |
| 1777398350 | 17.78° C | 87% | 1012.5 hPa | 0 mm | - | 90 W/m² | - |
| 1777398047 | 17.78° C | 86% | 1012.5 hPa | 0 mm | - | 100 W/m² | - |
| 1777397743 | 18.33° C | 84% | 1012.5 hPa | 0 mm | - | 88 W/m² | - |
| 1777397434 | 18.33° C | 84% | 1012.4 hPa | 0 mm | - | 123 W/m² | - |
| 1777397130 | 17.78° C | 83% | 1012.4 hPa | 0 mm | - | 128 W/m² | - |
| 1777396827 | 18.33° C | 83% | 1012.2 hPa | 0 mm | - | 105 W/m² | - |
| 1777396523 | 17.78° C | 84% | 1012.6 hPa | 0 mm | - | 117 W/m² | - |
| 1777396220 | 17.78° C | 84% | 1012.4 hPa | 0 mm | - | 119 W/m² | - |
| 1777395916 | 17.78° C | 84% | 1012.3 hPa | 0 mm | - | 127 W/m² | - |
| 1777395612 | 17.78° C | 83% | 1012.4 hPa | 0 mm | - | 83 W/m² | - |
| 1777395308 | 17.78° C | 84% | 1012.4 hPa | 0 mm | - | 119 W/m² | - |
| 1777395006 | 17.78° C | 83% | 1012.5 hPa | 0 mm | - | 90 W/m² | - |
| 1777394702 | 17.78° C | 84% | 1012.4 hPa | 0 mm | - | 87 W/m² | - |
| 1777394399 | 17.78° C | 84% | 1012.4 hPa | 0 mm | - | 86 W/m² | - |
* Rain latest hour (hover to see other rain measurements)
** Current wind speed in m/s (hover to see current wind gust speed)